Hourly Weather São Luís

Today, 30 September, Wednesday

Time Temperature Precipitation Wind Pressure Humidity
00:00 +28°C° 0 mm 5 mps 758 mmHg 83%
01:00 +28°C° 0 mm 5 mps 758 mmHg 81%
02:00 +28°C° 0 mm 6 mps 757 mmHg 79%
03:00 +28°C° 0 mm 6 mps 757 mmHg 77%
04:00 +28°C° 0 mm 6 mps 757 mmHg 78%
05:00 +28°C° 0 mm 6 mps 757 mmHg 78%
06:00 +28°C° 0 mm 7 mps 758 mmHg 79%
07:00 +29°C° 0.1 mm 7 mps 758 mmHg 77%
08:00 +29°C° 0.1 mm 7 mps 759 mmHg 74%
09:00 +30°C° 0.1 mm 7 mps 759 mmHg 71%
10:00 +32°C° 0 mm 7 mps 759 mmHg 67%
11:00 +33°C° 0 mm 7 mps 758 mmHg 62%
12:00 +34°C° 0 mm 6 mps 758 mmHg 57%
13:00 +34°C° 0 mm 7 mps 757 mmHg 57%
14:00 +34°C° 0 mm 7 mps 756 mmHg 57%
15:00 +34°C° 0 mm 7 mps 756 mmHg 57%
16:00 +32°C° 0 mm 7 mps 756 mmHg 63%
17:00 +30°C° 0 mm 7 mps 756 mmHg 68%
18:00 +28°C° 0 mm 6 mps 756 mmHg 74%
19:00 +28°C° 0 mm 6 mps 756 mmHg 77%
20:00 +28°C° 0 mm 6 mps 757 mmHg 80%
21:00 +27°C° 0 mm 6 mps 757 mmHg 83%
22:00 +27°C° 0 mm 6 mps 757 mmHg 82%
23:00 +27°C° 0 mm 5 mps 757 mmHg 82%

Tomorrow, 1 October, Thursday

Time Temperature Precipitation Wind Pressure Humidity
00:00 +27°C° 0 mm 5 mps 757 mmHg 81%
01:00 +27°C° 0 mm 6 mps 757 mmHg 80%
02:00 +28°C° 0 mm 6 mps 756 mmHg 79%
03:00 +28°C° 0 mm 6 mps 755 mmHg 79%
04:00 +27°C° 0 mm 6 mps 756 mmHg 79%
05:00 +27°C° 0 mm 7 mps 756 mmHg 80%
06:00 +27°C° 0 mm 7 mps 757 mmHg 81%
07:00 +28°C° 0.2 mm 6 mps 757 mmHg 78%
08:00 +28°C° 0.2 mm 6 mps 758 mmHg 76%
09:00 +29°C° 0.2 mm 5 mps 759 mmHg 73%
10:00 +30°C° 0 mm 5 mps 758 mmHg 66%
11:00 +33°C° 0 mm 5 mps 758 mmHg 59%
12:00 +34°C° 0 mm 5 mps 757 mmHg 52%
13:00 +34°C° 0 mm 5 mps 756 mmHg 53%
14:00 +34°C° 0 mm 5 mps 756 mmHg 54%
15:00 +34°C° 0 mm 6 mps 755 mmHg 55%
16:00 +32°C° 0 mm 6 mps 755 mmHg 62%
17:00 +30°C° 0 mm 6 mps 755 mmHg 69%
18:00 +29°C° 0 mm 6 mps 755 mmHg 76%
19:00 +28°C° 0 mm 6 mps 756 mmHg 79%
20:00 +28°C° 0 mm 6 mps 756 mmHg 81%
21:00 +28°C° 0 mm 6 mps 757 mmHg 84%
22:00 +28°C° 0 mm 6 mps 757 mmHg 83%
23:00 +28°C° 0 mm 6 mps 757 mmHg 82%

Day after tomorrow, 2 October, Friday

Time Temperature Precipitation Wind Pressure Humidity
00:00 +28°C° 0 mm 6 mps 757 mmHg 81%
01:00 +28°C° 0 mm 6 mps 756 mmHg 81%
02:00 +28°C° 0 mm 6 mps 756 mmHg 82%
03:00 +28°C° 0 mm 6 mps 755 mmHg 82%
04:00 +28°C° 0 mm 6 mps 756 mmHg 81%
05:00 +28°C° 0 mm 6 mps 756 mmHg 79%
06:00 +29°C° 0 mm 7 mps 756 mmHg 78%
07:00 +29°C° 0.1 mm 7 mps 757 mmHg 74%
08:00 +30°C° 0.1 mm 7 mps 757 mmHg 70%
09:00 +32°C° 0.1 mm 7 mps 758 mmHg 66%
10:00 +33°C° 0 mm 7 mps 757 mmHg 61%
11:00 +34°C° 0 mm 6 mps 757 mmHg 55%
12:00 +36°C° 0 mm 6 mps 757 mmHg 49%
13:00 +35°C° 0 mm 6 mps 756 mmHg 51%
14:00 +35°C° 0 mm 7 mps 755 mmHg 53%
15:00 +35°C° 0 mm 7 mps 754 mmHg 54%
16:00 +33°C° 0 mm 7 mps 755 mmHg 61%
17:00 +32°C° 0 mm 6 mps 755 mmHg 68%
18:00 +29°C° 0 mm 6 mps 755 mmHg 75%
19:00 +29°C° 0 mm 6 mps 756 mmHg 77%
20:00 +29°C° 0 mm 6 mps 756 mmHg 79%
21:00 +28°C° 0 mm 6 mps 757 mmHg 82%
22:00 +28°C° 0 mm 6 mps 757 mmHg 81%
23:00 +28°C° 0 mm 7 mps 757 mmHg 81%

3 October, Saturday

Time Temperature Precipitation Wind Pressure Humidity
00:00 +28°C° 0 mm 7 mps 757 mmHg 80%
01:00 +28°C° 0 mm 7 mps 756 mmHg 80%
02:00 +28°C° 0 mm 7 mps 756 mmHg 80%
03:00 +28°C° 0 mm 7 mps 756 mmHg 80%
04:00 +28°C° 0 mm 6 mps 756 mmHg 80%
05:00 +28°C° 0 mm 6 mps 756 mmHg 79%
06:00 +28°C° 0 mm 6 mps 757 mmHg 79%
07:00 +29°C° 0 mm 6 mps 757 mmHg 75%
08:00 +30°C° 0 mm 6 mps 758 mmHg 71%
09:00 +30°C° 0 mm 6 mps 759 mmHg 67%
10:00 +32°C° 0 mm 6 mps 758 mmHg 63%
11:00 +33°C° 0 mm 7 mps 758 mmHg 60%
12:00 +34°C° 0 mm 7 mps 757 mmHg 56%
13:00 +34°C° 0 mm 7 mps 757 mmHg 56%
14:00 +34°C° 0 mm 7 mps 756 mmHg 56%
15:00 +34°C° 0 mm 7 mps 755 mmHg 57%
16:00 +32°C° 0 mm 7 mps 755 mmHg 63%
17:00 +30°C° 0 mm 6 mps 755 mmHg 69%
18:00 +29°C° 0 mm 6 mps 756 mmHg 75%
19:00 +28°C° 0 mm 6 mps 756 mmHg 77%
20:00 +28°C° 0 mm 6 mps 757 mmHg 79%
21:00 +28°C° 0 mm 6 mps 757 mmHg 81%
22:00 +28°C° 0 mm 6 mps 757 mmHg 81%
23:00 +28°C° 0 mm 6 mps 757 mmHg 81%

4 October, Sunday

Time Temperature Precipitation Wind Pressure Humidity
00:00 +28°C° 0 mm 6 mps 757 mmHg 82%
01:00 +28°C° 0 mm 6 mps 757 mmHg 82%
02:00 +28°C° 0 mm 6 mps 756 mmHg 83%
03:00 +28°C° 0 mm 6 mps 756 mmHg 83%
04:00 +28°C° 0 mm 6 mps 756 mmHg 81%
05:00 +28°C° 0 mm 6 mps 757 mmHg 80%
06:00 +28°C° 0 mm 6 mps 757 mmHg 78%
07:00 +29°C° 0 mm 6 mps 757 mmHg 74%
08:00 +30°C° 0 mm 7 mps 758 mmHg 71%
09:00 +32°C° 0 mm 7 mps 759 mmHg 67%
10:00 +33°C° 0 mm 7 mps 758 mmHg 63%
11:00 +33°C° 0 mm 7 mps 758 mmHg 60%
12:00 +34°C° 0 mm 7 mps 757 mmHg 56%
13:00 +34°C° 0 mm 7 mps 757 mmHg 57%
14:00 +34°C° 0 mm 7 mps 756 mmHg 58%
15:00 +33°C° 0 mm 7 mps 756 mmHg 59%
16:00 +32°C° 0 mm 6 mps 756 mmHg 64%
17:00 +30°C° 0 mm 6 mps 756 mmHg 70%
18:00 +29°C° 0 mm 5 mps 756 mmHg 75%
19:00 +28°C° 0 mm 5 mps 757 mmHg 78%
20:00 +28°C° 0 mm 5 mps 757 mmHg 80%
21:00 +28°C° 0 mm 5 mps 757 mmHg 83%
22:00 +28°C° 0 mm 5 mps 757 mmHg 83%
23:00 +28°C° 0 mm 5 mps 757 mmHg 84%

5 October, Monday

Time Temperature Precipitation Wind Pressure Humidity
00:00 +28°C° 0 mm 5 mps 757 mmHg 84%
01:00 +28°C° 0 mm 5 mps 756 mmHg 83%
02:00 +28°C° 0 mm 6 mps 756 mmHg 83%
03:00 +28°C° 0 mm 6 mps 756 mmHg 82%
04:00 +28°C° 0 mm 6 mps 756 mmHg 82%
05:00 +28°C° 0 mm 6 mps 756 mmHg 82%
06:00 +28°C° 0 mm 6 mps 757 mmHg 82%
07:00 +29°C° 0.1 mm 6 mps 758 mmHg 76%
08:00 +30°C° 0.1 mm 6 mps 758 mmHg 70%
09:00 +32°C° 0.1 mm 6 mps 759 mmHg 64%
10:00 +33°C° 0 mm 7 mps 758 mmHg 61%
11:00 +34°C° 0 mm 7 mps 758 mmHg 58%
12:00 +34°C° 0 mm 7 mps 757 mmHg 56%
13:00 +34°C° 0 mm 7 mps 757 mmHg 58%
14:00 +33°C° 0 mm 7 mps 756 mmHg 59%
15:00 +33°C° 0 mm 8 mps 755 mmHg 61%
16:00 +32°C° 0 mm 7 mps 756 mmHg 65%
17:00 +30°C° 0 mm 7 mps 756 mmHg 70%
18:00 +29°C° 0 mm 6 mps 756 mmHg 74%
19:00 +29°C° 0 mm 6 mps 756 mmHg 75%
20:00 +28°C° 0 mm 6 mps 757 mmHg 77%
21:00 +28°C° 0 mm 6 mps 757 mmHg 78%
22:00 +28°C° 0 mm 6 mps 757 mmHg 79%
23:00 +28°C° 0 mm 6 mps 757 mmHg 80%
Show more